Home   Weather   North Cape   Past weeks
Flag for Norway

Past Weather in North Cape, Norway — Yesterday and Last 2 Weeks

Now
37 °F

Chilly.


Feels Like: 37 °F
Forecast: 37 / 35 °F
Wind: 2 mph from Southwest

Location: Honningsvag / Valan

Current Time: Oct 15, 2019 at 4:17:10 pm

Latest Report: Oct 15, 2019 at 3:00 pm


Visibility: N/A

Pressure: 30.04 "Hg

Humidity: 78%

Dew Point: 31 °F

Location of North CapeLocation

Past Weather in North Cape — Graph

°F

North Cape Temperature Yesterday

Maximum temperature yesterday: 39 °F (at 2:00 pm)
Minimum temperature yesterday: 34 °F (at 11:00 pm)
Average temperature yesterday: 37 °F

High & Low Weather Summary for the Past Weeks

 TemperatureHumidityPressure
High44 °F (Oct 7, 1:00 pm)100% (Oct 11, 3:00 pm)30.21 "Hg (Oct 11, 3:00 pm)
Low33 °F (Oct 15, 2:00 am)60% (Oct 2, 4:00 pm)29.38 "Hg (Oct 11, 5:00 am)
Average39 °F79%29.83 "Hg
* Reported Sep 30 3:00 pm — Oct 15 3:00 pm, North Cape. Weather by CustomWeather, © 2019

Note: Actual official high and low records may vary slightly from our data, if they occured in-between our weather recording intervals... More about our weather records

Advertising

North Cape Weather History for the Previous 24 Hours

Scroll right to see more
 ConditionsComfort  
Time TempWeatherWind HumidityBarometerVisibility
3:00 pm
Tue, Oct 15
37 °FChilly.2 mph78%30.04 "HgN/A
2:00 pm37 °FChilly.3 mph75%30.04 "HgN/A
1:00 pm37 °FChilly.2 mph76%30.03 "HgN/A
12:00 pm37 °FChilly.5 mph76%30.02 "HgN/A
11:00 am37 °FChilly.6 mph80%30.01 "HgN/A
10:00 am37 °FChilly.5 mph80%30.01 "HgN/A
9:00 am36 °FChilly.3 mph80%30.00 "HgN/A
8:00 am35 °FChilly.3 mph79%29.98 "HgN/A
7:00 am34 °FChilly.1 mph78%29.98 "HgN/A
6:00 am34 °FChilly.1 mph79%29.97 "HgN/A
5:00 am34 °FChilly.1 mph81%29.97 "HgN/A
4:00 am35 °FChilly.No wind77%29.96 "HgN/A
3:00 am35 °FChilly.2 mph76%29.95 "HgN/A
2:00 am33 °FChilly.No wind80%29.94 "HgN/A
1:00 am33 °FChilly.No wind79%29.93 "HgN/A
12:00 am34 °FChilly.2 mph79%29.93 "HgN/A
11:00 pm
Mon, Oct 14
34 °FChilly.1 mph77%29.92 "HgN/A
10:00 pm34 °FChilly.1 mph78%29.92 "HgN/A
9:00 pm34 °FChilly.No wind78%29.91 "HgN/A
8:00 pm36 °FChilly.No wind77%29.90 "HgN/A
7:00 pm35 °FChilly.No wind77%29.90 "HgN/A
6:00 pm35 °FChilly.2 mph76%N/AN/A
5:00 pm36 °FChilly.1 mph78%29.89 "HgN/A
4:00 pm37 °FChilly.2 mph73%29.88 "HgN/A
Weather by CustomWeather, © 2019

See weather overview